Location: Vesunti
(61.5000°N, 22.8333°E)
Time: 13:58:28
(UTC+00:00)

Cosmos 2322 Rocket - Pass Details

Date: 17 February 2020
Orbit: 833 x 851 km, 71.0° (Epoch: 07 April)

Event Time Altitude Azimuth Distance (km) Brightness Sun altitude
Exits shadow 02:15:13 47° 329° (NNW) 1,121 2.7 -27.8°
Maximum altitude 02:15:15 47° 330° (NNW) 1,121 2.7 -27.8°
Drops below altitude 10° 02:20:47 10° 45° (NE) 2,491 5.5 -27.2°
Sets 02:23:21 0° 51° (NE) 3,428 6.6 -26.9°
